Вернуться в каталог

QIANFAN-194

АктивенСвязьPO
NORAD 69412·PAYLOAD·🇨🇳 China

Запущен Jun 5, 2026 с Wenchang Space Launch Site

Loading…

Ближайшие Пролёты (ближайшие 24 часа)

TLE

СвежийSource: Space-Track

Эпоха: Sep 14, 2026, 13:48 UTC

1 69412U 26125M   26257.57518113 -.00000002  00000-0 -21228-4 0  9994
2 69412  88.9899 270.9138 0001966 102.5333 257.6038 13.51026036 14018

Отслеживайте QIANFAN-194 в реальном времени с AllMySat

Download on the App Store